Sisseton, SD

5:50 AM CDT on June 25, 2017 (GMT -0500)
Sisseton

Weather History for K8D3 - December, 2012

Change the Weather History Date:

Monday, December 3, 2012

  Actual Average Record
Temperature  
Mean Temperature 44 °F 21 °F  
Max Temperature 58 °F 31 °F 64 °F (1941)
Min Temperature 30 °F 12 °F -17 °F (1985)
Degree Days  
Heating Degree Days 21 44  
Month to date heating degree days 74 130  
Since 1 July heating degree days 1917 1981  
Cooling Degree Days 0 0  
Month to date cooling degree days 0 0  
Year to date cooling degree days 712 527  
Moisture  
Dew Point 32 °F    
Average Humidity 56    
Maximum Humidity 76    
Minimum Humidity 35    
Precipitation  
Precipitation 0.01 in 0.02 in 0.65 in (1953)
Month to date precipitation 0.01 0.05  
Year to date precipitation 16.78 21.99  
Snow  
Snow 0.00 in - - ()
Month to date snowfall 0.0  
Since 1 July snowfall T  
Snow Depth 0.00 in    
Sea Level Pressure  
Sea Level Pressure 29.64 in    
Wind  
Wind Speed 21 mph (WNW)    
Max Wind Speed 39 mph    
Max Gust Speed 51 mph    
T = Trace of Precipitation, MM = Missing Value Source: NWS Daily Summary

Daily Weather History Graph

Daily Weather History Graph

Search for Another Location

Airport or City:

Trip Planner

Search our weather history database for the weather conditions in past years. The results will help you decide how hot, cold, wet, or windy it might be!

Date:

Astronomy

Dec. 03, 2012 Rise Set
Actual Time 7:51 AM CST 4:44 PM CST
Civil Twilight 7:17 AM CST 5:18 PM CST
Nautical Twilight 6:40 AM CST 5:55 PM CST
Astronomical Twilight 6:04 AM CST 6:31 PM CST
Moon 9:41 PM CST (12/3) 11:07 AM CST (12/3)
Length of Visible Light 10h 01m
Length of Day
8h 53m
Waning Gibbous, 78% of the Moon is Illuminated
Dec 3
Waning Gibbous
Dec 6
Last Quarter
Dec 13
New
Dec 19
First Quarter
Dec 28
Full

Hourly Weather History & Observations

Time (CST) Temp. Windchill Dew Point Humidity Pressure Visibility Wind Dir Wind Speed Gust Speed Precip Events Conditions
12:56 AM 57.0 °F - 36.0 °F 45% 29.43 in - SW 28.8 mph 43.7 mph N/A   Unknown
1:56 AM 57.0 °F - 36.0 °F 45% 29.40 in - SW 36.8 mph 50.6 mph N/A   Unknown
2:56 AM 55.9 °F - 37.0 °F 49% 29.38 in - SW 32.2 mph 44.9 mph N/A   Unknown
3:56 AM 55.0 °F - 37.9 °F 53% 29.35 in - SW 28.8 mph 38.0 mph N/A   Unknown
4:56 AM 53.1 °F - 37.9 °F 57% 29.35 in - WSW 25.3 mph 33.4 mph N/A   Unknown
5:56 AM 51.1 °F - 39.0 °F 63% 29.37 in - WSW 28.8 mph 40.3 mph N/A   Unknown
6:56 AM 50.0 °F - 37.0 °F 61% 29.41 in - West 17.3 mph 28.8 mph N/A   Unknown
7:56 AM 50.0 °F - 35.1 °F 57% 29.49 in - NW 23.0 mph 28.8 mph N/A   Unknown
8:56 AM 50.0 °F - 37.9 °F 63% 29.53 in - NW 19.6 mph 29.9 mph N/A   Unknown
9:56 AM 48.9 °F - 39.9 °F 71% 29.59 in - NNW 28.8 mph 36.8 mph N/A   Unknown
10:56 AM 46.0 °F 38.8 °F 39.9 °F 79% 29.64 in - NW 18.4 mph - 0.01 in   Unknown
11:56 AM 48.9 °F - 36.0 °F 61% 29.65 in - NW 21.9 mph 26.5 mph N/A   Unknown
12:56 PM 52.0 °F - 30.9 °F 45% 29.64 in - NNW 24.2 mph 34.5 mph N/A   Unknown
1:56 PM 53.1 °F - 28.0 °F 38% 29.66 in - NW 27.6 mph 38.0 mph N/A   Unknown
2:56 PM 53.1 °F - 26.1 °F 35% 29.70 in - NW 21.9 mph 32.2 mph N/A   Unknown
3:56 PM 52.0 °F - 25.0 °F 35% 29.74 in - NW 20.7 mph - N/A   Unknown
4:56 PM 45.0 °F 39.7 °F 25.0 °F 46% 29.79 in - WNW 10.4 mph - N/A   Unknown
5:56 PM 43.0 °F 38.2 °F 25.0 °F 49% 29.82 in - West 8.1 mph - N/A   Unknown
6:56 PM 44.1 °F 37.4 °F 25.0 °F 47% 29.84 in - West 13.8 mph - N/A   Unknown
7:56 PM 45.0 °F 39.3 °F 25.0 °F 46% 29.86 in - West 11.5 mph - N/A   Unknown
8:56 PM 44.1 °F 37.1 °F 25.0 °F 47% 29.89 in - NW 15.0 mph - N/A   Unknown
9:56 PM 39.0 °F 31.8 °F 25.0 °F 57% 29.94 in - NNW 11.5 mph - N/A   Unknown
10:56 PM 33.1 °F 26.1 °F 23.0 °F 66% 29.97 in - NNE 8.1 mph - N/A   Unknown
11:56 PM 33.1 °F 25.5 °F 24.1 °F 70% 29.99 in - North 9.2 mph - N/A   Unknown